LROD Weather Reports


time (UTC)temp
C
wind
direction
speed
KPH
gust
KPH
rain 1hr
cm
rain 24hr
cm
rain mn
cm
humidity
%
barometer
mb
20260507110329 17 210 20.9 0.0 0.00 0.00 0.00 83 1015.0
20260507104829 17 220 20.9 0.0 0.00 0.00 0.00 78 1015.0
20260507103329 17 220 20.9 0.0 0.00 0.00 0.00 78 1015.0
20260507101829 17 190 17.7 0.0 0.00 0.00 0.00 64 1015.0
20260507100330 17 190 17.7 0.0 0.00 0.00 0.00 64 1015.0
20260507094829 17 180 14.5 0.0 0.00 0.00 0.00 64 1015.0
20260507093330 17 180 14.5 0.0 0.00 0.00 0.00 64 1015.0
20260507091830 17 200 17.7 0.0 0.00 0.00 0.00 64 1014.0
20260507090329 17 200 17.7 0.0 0.00 0.00 0.00 64 1014.0
20260507084829 18 200 22.5 0.0 0.00 0.00 0.00 56 1014.0
20260507083330 18 200 22.5 0.0 0.00 0.00 0.00 56 1014.0
20260507081829 18 200 17.7 0.0 0.00 0.00 0.00 56 1014.0
20260507080330 18 200 17.7 0.0 0.00 0.00 0.00 56 1014.0
20260507074830 18 210 12.9 0.0 0.00 0.00 0.00 52 1014.0
20260507073329 18 210 12.9 0.0 0.00 0.00 0.00 52 1014.0
20260507071829 18 230 8.0 0.0 0.00 0.00 0.00 60 1014.0
20260507070329 18 230 8.0 0.0 0.00 0.00 0.00 60 1014.0
20260507064829 17 1.6 0.0 0.00 0.00 0.00 60 1014.0
20260507063329 17 1.6 0.0 0.00 0.00 0.00 60 1014.0
20260507061839 16 100 8.0 0.0 0.00 0.00 0.00 63 1013.0
20260507060329 16 100 8.0 0.0 0.00 0.00 0.00 63 1013.0
20260507054829 16 110 9.7 0.0 0.00 0.00 0.00 63 1013.0
20260507053337 16 110 9.7 0.0 0.00 0.00 0.00 63 1013.0
20260507051830 15 100 9.7 0.0 0.00 0.00 0.00 63 1013.0
20260507050329 15 100 9.7 0.0 0.00 0.00 0.00 63 1013.0
20260507044826 13 150 17.7 0.0 0.00 0.00 0.00 67 1012.0
20260507043329 13 150 17.7 0.0 0.00 0.00 0.00 67 1012.0
20260507041829 15 100 11.3 0.0 0.00 0.00 0.00 63 1012.0
20260507040329 15 100 11.3 0.0 0.00 0.00 0.00 63 1012.0
20260507034826 13 90 11.3 0.0 0.00 0.00 0.00 67 1012.0
20260507033328 13 90 11.3 0.0 0.00 0.00 0.00 67 1012.0
20260507031829 15 110 8.0 0.0 0.00 0.00 0.00 63 1012.0
20260507030329 15 110 8.0 0.0 0.00 0.00 0.00 63 1012.0
20260507024829 13 90 11.3 0.0 0.00 0.00 0.00 67 1012.0
20260507023329 13 90 11.3 0.0 0.00 0.00 0.00 67 1012.0
20260507021829 13 130 9.7 0.0 0.00 0.00 0.00 67 1012.0
20260507020329 13 140 9.7 0.0 0.00 0.00 0.00 67 1012.0
20260507014829 15 3.2 0.0 0.00 0.00 0.00 63 1012.0
20260507013329 15 3.2 0.0 0.00 0.00 0.00 63 1012.0
20260507011829 15 210 11.3 0.0 0.00 0.00 0.00 63 1012.0
20260507010329 15 210 11.3 0.0 0.00 0.00 0.00 63 1012.0
20260507004829 15 100 16.1 0.0 0.00 0.00 0.00 68 1011.0
20260507003329 15 100 16.1 0.0 0.00 0.00 0.00 68 1011.0
20260507001829 15 100 14.5 0.0 0.00 0.00 0.00 68 1011.0
20260507000329 15 100 14.5 0.0 0.00 0.00 0.00 68 1011.0
20260506234829 15 100 14.5 0.0 0.00 0.00 0.00 68 1011.0
20260506233329 15 100 14.5 0.0 0.00 0.00 0.00 68 1011.0
20260506231830 15 100 12.9 0.0 0.00 0.00 0.00 68 1011.0
20260506230329 15 100 12.9 0.0 0.00 0.00 0.00 68 1011.0
20260506224825 16 100 14.5 0.0 0.00 0.00 0.00 63 1011.0
20260506223329 16 100 14.5 0.0 0.00 0.00 0.00 63 1011.0
20260506221829 16 110 11.3 0.0 0.00 0.00 0.00 63 1011.0
20260506220328 16 110 11.3 0.0 0.00 0.00 0.00 63 1011.0
20260506214845 17 100 12.9 0.0 0.00 0.00 0.00 59 1011.0
20260506213329 17 100 12.9 0.0 0.00 0.00 0.00 59 1011.0
20260506211826 17 110 11.3 0.0 0.00 0.00 0.00 59 1011.0
20260506210329 17 110 11.3 0.0 0.00 0.00 0.00 59 1011.0
20260506204830 17 140 9.7 0.0 0.00 0.00 0.00 52 1011.0
20260506203329 17 140 9.7 0.0 0.00 0.00 0.00 52 1011.0
20260506201826 17 140 9.7 0.0 0.00 0.00 0.00 52 1011.0
20260506200329 17 140 9.7 0.0 0.00 0.00 0.00 52 1011.0
20260506194848 17 160 11.3 0.0 0.00 0.00 0.00 52 1011.0
20260506193353 17 160 11.3 0.0 0.00 0.00 0.00 52 1011.0
20260506191830 18 150 11.3 0.0 0.00 0.00 0.00 49 1011.0
20260506190329 18 150 11.3 0.0 0.00 0.00 0.00 49 1011.0
20260506184834 17 190 8.0 0.0 0.00 0.00 0.00 52 1011.0
20260506183329 17 190 8.0 0.0 0.00 0.00 0.00 52 1011.0
20260506181829 20 180 9.7 0.0 0.00 0.00 0.00 46 1011.0
20260506180330 20 180 9.7 0.0 0.00 0.00 0.00 46 1011.0
20260506174829 22 200 8.0 0.0 0.00 0.00 0.00 41 1010.0
20260506173329 22 200 8.0 0.0 0.00 0.00 0.00 41 1010.0
20260506171829 23 220 11.3 0.0 0.00 0.00 0.00 36 1010.0
20260506170329 23 220 11.3 0.0 0.00 0.00 0.00 36 1010.0
20260506164829 25 230 20.9 0.0 0.00 0.00 0.00 34 1011.0
20260506163329 25 230 20.9 0.0 0.00 0.00 0.00 34 1011.0
20260506161829 25 240 17.7 0.0 0.00 0.00 0.00 36 1011.0
20260506160329 25 240 17.7 0.0 0.00 0.00 0.00 36 1011.0
20260506154830 25 210 16.1 0.0 0.00 0.00 0.00 34 1011.0
20260506153329 25 210 16.1 0.0 0.00 0.00 0.00 34 1011.0
20260506151829 26 230 20.9 0.0 0.00 0.00 0.00 32 1011.0
20260506150335 26 230 20.9 0.0 0.00 0.00 0.00 32 1011.0
20260506144829 25 240 22.5 0.0 0.00 0.00 0.00 36 1011.0
20260506143341 25 240 22.5 0.0 0.00 0.00 0.00 36 1011.0
20260506141829 25 240 22.5 0.0 0.00 0.00 0.00 36 1011.0
20260506140447 25 240 22.5 0.0 0.00 0.00 0.00 36 1011.0
20260506134854 26 210 22.5 0.0 0.00 0.00 0.00 34 1012.0
20260506133329 26 210 22.5 0.0 0.00 0.00 0.00 34 1012.0
20260506131829 25 210 20.9 0.0 0.00 0.00 0.00 34 1012.0
20260506130338 25 210 20.9 0.0 0.00 0.00 0.00 34 1012.0
20260506124830 26 220 22.5 0.0 0.00 0.00 0.00 34 1012.0
20260506123329 26 220 22.5 0.0 0.00 0.00 0.00 34 1012.0
20260506121829 25 210 22.5 0.0 0.00 0.00 0.00 34 1012.0
20260506120329 25 210 22.5 0.0 0.00 0.00 0.00 34 1012.0
20260506114829 23 210 22.5 0.0 0.00 0.00 0.00 36 1013.0
20260506113330 23 210 22.5 0.0 0.00 0.00 0.00 36 1013.0
20260506111829 23 210 17.7 0.0 0.00 0.00 0.00 39 1013.0